[[{"header":{"parameterUnit":"m.s-1","parameterCategory":2,"la1":30.2991,"la2":30.254,"lo1":-89.0895,"lo2":-89.0444,"dy":0.0017,"dx":0.0017,"nx":28,"ny":28,"refTime":"2024-04-26T03:00:00:Z","depth":"0","parameterNumber":2,"parameterNumberName":"U-component_of_CURRENTS"},"data":[0,0,0,0,0,0,0,0,0,0,0,0,0,0,0,0,0,0,0,0,0,0,0,0,0,0,0,0,0,0,0,0,0,0,0,0,0,0,0,0,0,0,0,0,0,0,0,0,0,0,0,0,0,0,0,0,0,0,0.2151,0.2151,0,0.2149,0.2149,0.2149,0.2134,0.2134,0.2133,0.2133,0.2126,0.2126,0.2126,0,0,0,0,0,0,0,0,0,0,0,0,0,0.2175,0.2174,0.2151,0.2151,0.2151,0.2149,0.2149,0.2149,0.2134,0.2134,0.2133,0.2133,0.2126,0.2126,0.2126,0,0,0,0,0,0,0,0,0,0,0,0,0,0.2167,0.2174,0.2151,0.2144,0.2143,0.2149,0.2149,0.2149,0.2134,0.2134,0.2133,0.2133,0.2126,0.2126,0.2126,0.2137,0,0,0.2127,0.2127,0,0,0,0,0,0,0,0,0.2168,0.2166,0.2145,0.2144,0.2143,0.2142,0.2154,0.2145,0.2134,0.2137,0.2133,0.2133,0.2131,0.2131,0.2131,0.2137,0.2136,0.2127,0.2127,0.2127,0.2127,0,0,0,0,0,0,0,0.2168,0.2166,0.215,0.2145,0.2144,0.2152,0.215,0.2153,0.2137,0.2137,0.2136,0.2136,0.2131,0.2131,0.2131,0.2136,0.2127,0.2127,0.2127,0.2127,0.2222,0.2224,0,0,0,0,0,0,0.2168,0.2167,0.215,0.215,0.2155,0.2152,0.2149,0.2142,0.2137,0.2135,0.2137,0.2136,0.2131,0.2131,0.2131,0.2201,0.2127,0.2127,0.2127,0.2219,0.2222,0.2225,0,0,0,0,0,0,0.2168,0.2166,0.215,0.2159,0.2157,0.2151,0.2144,0.2143,0.2144,0.2137,0.2135,0.214,0.2131,0.213,0.2145,0.2198,0.2127,0.2127,0.2216,0.222,0.2224,0.2305,0,0,0,0,0,0,0.2169,0.2166,0.2165,0.2159,0.2157,0.2157,0.2144,0.2143,0.2145,0.2144,0.2139,0.2137,0.213,0.2145,0.2145,0.2197,0.2127,0.2213,0.2218,0.2222,0.2299,0.2311,0.2321,0,0,0,0,0,0.217,0.2171,0.2164,0.2163,0.2153,0.2158,0.2158,0.2152,0.2146,0.2151,0.2153,0.2138,0.2175,0.2146,0.2146,0.22,0.2211,0.2217,0.2222,0.2294,0.2309,0.2321,0,0,0,0,0,0,0.2181,0.2169,0.2162,0.2159,0.216,0.2155,0.216,0.2156,0.2161,0.2163,0.2152,0.2152,0.2198,0.2182,0.215,0.2244,0.2198,0.2203,0.2253,0.2266,0.2277,0.2297,0.2128,0,0,0,0,0,0.2182,0.2177,0.2172,0.2169,0.2171,0.2166,0.2168,0.2168,0.217,0.2171,0.2171,0.2185,0.2221,0.2225,0.2248,0.2277,0.2264,0.2319,0.233,0.2339,0.2358,0.2389,0.2404,0.2243,0.2243,0.2243,0,0,0.2184,0.2179,0.2175,0.2172,0.2171,0.2186,0.2166,0.2175,0.2203,0.2171,0.2206,0.2222,0.224,0.2292,0.2311,0.228,0.2374,0.2346,0.2353,0.2368,0.2396,0.2412,0.2426,0.2246,0.2246,0.2245,0,0,0.219,0.2183,0.2183,0.219,0.2195,0.2202,0.2206,0.221,0.2228,0.2259,0.2268,0.2314,0.2331,0.2375,0.2396,0.2478,0.2438,0.2483,0.2543,0.2573,0.2586,0.2598,0.2577,0.2586,0.2478,0.2478,0.2478,0,0.2196,0.2193,0.2186,0.2197,0.2211,0.2212,0.2231,0.2256,0.2269,0.2301,0.2281,0.2374,0.2386,0.248,0.2516,0.2507,0.2488,0.2488,0.2586,0.2598,0.2608,0.2584,0.2593,0.2483,0.2482,0.2482,0.2481,0,0.2202,0.2209,0.2215,0.2229,0.2247,0.2265,0.2297,0.2328,0.235,0.2379,0.2468,0.2494,0.2547,0.2573,0.2569,0.2667,0.2617,0.2602,0.2549,0.2629,0.2598,0.2606,0.2489,0.2487,0.2486,0.2485,0,0,0.2194,0.2214,0.2217,0.224,0.2269,0.229,0.235,0.2412,0.2462,0.2506,0.2581,0.267,0.2684,0.2711,0.2724,0.2757,0.2813,0.271,0.271,0.2681,0.2836,0.276,0.276,0.2803,0.2806,0.2808,0.2775,0,0.2203,0.2231,0.2243,0.2292,0.2315,0.2352,0.2406,0.2469,0.2521,0.2594,0.2669,0.2742,0.2737,0.2768,0.281,0.2822,0.2842,0.2821,0.2771,0.2769,0.2686,0.2771,0.2641,0.2599,0.2782,0.2783,0.2784,0,0.2204,0.2229,0.2265,0.2334,0.2348,0.2382,0.2479,0.253,0.2637,0.2676,0.2765,0.2811,0.2908,0.2876,0.2936,0.2914,0.289,0.2883,0.2881,0.2793,0.271,0.2555,0.2605,0.2492,0.2796,0.2795,0.2794,0,0.2202,0.2252,0.2286,0.2306,0.2374,0.2416,0.2464,0.2556,0.261,0.2734,0.2778,0.2888,0.2934,0.2959,0.296,0.2946,0.299,0.2959,0.2865,0.2856,0.2731,0.2707,0.2664,0.2998,0.2998,0.2998,0.2998,0,0.2213,0.225,0.2288,0.2311,0.2371,0.2422,0.2494,0.256,0.2649,0.2716,0.2817,0.288,0.2957,0.2994,0.2983,0.2948,0.3003,0.2898,0.2864,0.2752,0.2732,0.2614,0.2549,0.2997,0.2997,0.2997,0.2997,0,0.2228,0.2236,0.229,0.2354,0.2366,0.2421,0.2491,0.2553,0.2626,0.2715,0.2758,0.2879,0.2926,0.2969,0.2997,0.2955,0.2819,0.2906,0.2748,0.2698,0.2499,0.2442,0.2235,0.2177,0.28,0.2798,0.2797,0,0.2251,0.2266,0.2311,0.2332,0.2364,0.2425,0.2461,0.2533,0.2589,0.2703,0.2751,0.2837,0.2882,0.2894,0.2855,0.2815,0.2723,0.2661,0.2636,0.2491,0.2404,0.2263,0.2222,0.2482,0.2478,0.2475,0.2473,0,0.2315,0.2312,0.2353,0.2374,0.2407,0.2431,0.2486,0.2506,0.259,0.2646,0.2698,0.2739,0.2757,0.2678,0.265,0.2618,0.2478,0.2592,0.2499,0.2211,0.1998,0.1924,0.2468,0.2444,0.2447,0.2449,0.245,0.2452,0.2372,0.2402,0.2421,0.2436,0.2454,0.2435,0.2415,0.2463,0.2494,0.251,0.2589,0.2555,0.2515,0.2461,0.2421,0.2245,0.224,0.2134,0.209,0.1972,0.1879,0.2345,0.2254,0.2256,0.2257,0.2259,0.226,0,0.2445,0.2454,0.2481,0.2468,0.2444,0.2442,0.2428,0.237,0.2348,0.2364,0.2353,0.2233,0.2139,0.2093,0.1932,0.177,0.1686,0.1673,0.1464,0.1469,0.1932,0.1887,0.1644,0.1644,0.1644,0.1644,0.1644,0.1644,0.249,0.2515,0.2496,0.2443,0.241,0.232,0.2268,0.2188,0.2151,0.2015,0.1905,0.1862,0.1785,0.1568,0.139,0.136,0.1205,0.1039,0.1079,0.1418,0.1459,0.1497,0.1442,0.111,0.1109,0.0553,0.0548,0.0545]},{"header":{"parameterUnit":"m.s-1","parameterCategory":2,"la1":30.2991,"la2":30.254,"lo1":-89.0895,"lo2":-89.0444,"dy":0.0017,"dx":0.0017,"nx":28,"ny":28,"refTime":"2024-04-26T03:00:00:Z","depth":"0","parameterNumber":3,"parameterNumberName":"V-component_of_CURRENTS"},"data":[0,0,0,0,0,0,0,0,0,0,0,0,0,0,0,0,0,0,0,0,0,0,0,0,0,0,0,0,0,0,0,0,0,0,0,0,0,0,0,0,0,0,0,0,0,0,0,0,0,0,0,0,0,0,0,0,0,0,0.0221,0.0221,0,0.0204,0.0204,0.0203,0.0188,0.0188,0.0188,0.0188,0.0159,0.0159,0.0158,0,0,0,0,0,0,0,0,0,0,0,0,0,0.0221,0.0221,0.0221,0.022,0.022,0.0204,0.0204,0.0203,0.0188,0.0188,0.0188,0.0188,0.0159,0.0159,0.0158,0,0,0,0,0,0,0,0,0,0,0,0,0,0.0214,0.0221,0.0221,0.0211,0.021,0.0204,0.0204,0.0203,0.0188,0.0188,0.0188,0.0188,0.016,0.0159,0.0158,0.0157,0,0,0.0155,0.0155,0,0,0,0,0,0,0,0,0.0214,0.0214,0.0213,0.0212,0.0211,0.0198,0.0193,0.0187,0.0189,0.0196,0.0188,0.0188,0.0171,0.017,0.0167,0.0155,0.0154,0.0155,0.0154,0.0154,0.0154,0,0,0,0,0,0,0,0.0215,0.0214,0.0214,0.0212,0.0211,0.0201,0.02,0.0192,0.0185,0.0196,0.0195,0.0193,0.0171,0.0168,0.0166,0.0154,0.0155,0.0154,0.0153,0.0153,0.0153,0.0154,0,0,0,0,0,0,0.0219,0.0215,0.0214,0.0213,0.0212,0.0201,0.02,0.0202,0.0185,0.0183,0.0193,0.0193,0.0169,0.0167,0.0165,0.0187,0.0154,0.0153,0.0152,0.0153,0.0154,0.0154,0,0,0,0,0,0,0.0219,0.0219,0.0215,0.0214,0.0212,0.0202,0.0204,0.0202,0.0202,0.0184,0.0181,0.0196,0.0169,0.0166,0.0166,0.0185,0.0153,0.0152,0.0152,0.0153,0.0154,0.0216,0,0,0,0,0,0,0.0219,0.0219,0.0221,0.0214,0.0213,0.0217,0.0204,0.0202,0.0201,0.02,0.0185,0.0182,0.0169,0.0168,0.0165,0.0183,0.0151,0.0151,0.0153,0.0154,0.0213,0.0219,0.0223,0,0,0,0,0,0.0219,0.0225,0.0221,0.0221,0.0216,0.0217,0.0216,0.0207,0.0202,0.0205,0.0197,0.0182,0.0172,0.0167,0.0164,0.0182,0.0151,0.0152,0.0154,0.0211,0.0218,0.0223,0,0,0,0,0,0,0.0224,0.0223,0.0219,0.0224,0.0222,0.0215,0.0216,0.0211,0.0207,0.0207,0.019,0.0186,0.0193,0.0177,0.0172,0.0184,0.0159,0.016,0.0204,0.021,0.0215,0.0232,0.015,0,0,0,0,0,0.0226,0.0232,0.0228,0.0232,0.0233,0.0226,0.0225,0.0221,0.0216,0.0214,0.0207,0.0198,0.0195,0.0195,0.0186,0.0194,0.0175,0.0202,0.0208,0.0212,0.0224,0.0214,0.022,0.0158,0.0158,0.0158,0,0,0.0228,0.0229,0.0231,0.0233,0.0232,0.0244,0.0225,0.0228,0.0241,0.0212,0.0228,0.0215,0.02,0.0211,0.0212,0.0201,0.0218,0.0214,0.0218,0.0227,0.0216,0.0222,0.0227,0.0159,0.0159,0.0159,0,0,0.0241,0.0238,0.025,0.0253,0.0256,0.0255,0.0259,0.0258,0.026,0.0271,0.0256,0.0257,0.025,0.0249,0.0245,0.0273,0.0244,0.0268,0.0312,0.0303,0.0308,0.0312,0.0289,0.029,0.0273,0.0273,0.0273,0,0.0243,0.0261,0.0252,0.0268,0.028,0.0265,0.0288,0.0287,0.0287,0.0304,0.0283,0.0293,0.0271,0.0297,0.0303,0.0287,0.0271,0.0292,0.0311,0.0315,0.0318,0.0293,0.0294,0.0276,0.0276,0.0276,0.0275,0,0.0268,0.0283,0.0292,0.0312,0.0322,0.0337,0.0341,0.0355,0.0357,0.0361,0.0384,0.0359,0.0372,0.0358,0.0337,0.0358,0.0335,0.0317,0.0298,0.0328,0.0299,0.0299,0.0281,0.028,0.0279,0.0278,0,0,0.0275,0.0305,0.031,0.0338,0.0351,0.037,0.0396,0.0427,0.0464,0.0451,0.0505,0.0476,0.0469,0.0465,0.0439,0.0422,0.0418,0.0383,0.0381,0.0365,0.0389,0.0389,0.0389,0.0405,0.0406,0.0407,0.0356,0,0.0302,0.035,0.0355,0.0409,0.044,0.0447,0.048,0.0505,0.0521,0.0567,0.0547,0.0579,0.0508,0.0526,0.0497,0.0451,0.0423,0.0433,0.0358,0.0355,0.0356,0.0391,0.0474,0.0438,0.0356,0.0356,0.0356,0,0.0328,0.0365,0.042,0.0485,0.0499,0.053,0.0603,0.0628,0.0673,0.0688,0.0708,0.0701,0.0695,0.0629,0.0549,0.0561,0.048,0.0423,0.042,0.0402,0.0357,0.0395,0.0441,0.044,0.0355,0.0355,0.0355,0,0.0359,0.0415,0.0468,0.0486,0.0546,0.0588,0.0626,0.0673,0.0727,0.0779,0.0834,0.0807,0.0824,0.0724,0.0602,0.0583,0.0506,0.0466,0.0384,0.0381,0.043,0.0432,0.0474,0.0402,0.0402,0.0402,0.0402,0,0.0392,0.044,0.0493,0.0526,0.0613,0.0636,0.0731,0.0763,0.0841,0.093,0.0905,0.0969,0.0848,0.0796,0.0654,0.0529,0.0542,0.0404,0.0379,0.0452,0.0456,0.0437,0.0401,0.04,0.0401,0.0401,0.0401,0,0.0432,0.0446,0.0526,0.0602,0.0628,0.07,0.0812,0.0892,0.0937,0.1061,0.1094,0.1105,0.104,0.0897,0.0745,0.0615,0.0471,0.0421,0.0509,0.0495,0.0424,0.0387,0.0353,0.032,0.034,0.034,0.034,0,0.0466,0.0504,0.0593,0.0649,0.0693,0.0792,0.0871,0.0937,0.1033,0.1146,0.1225,0.1213,0.1223,0.1002,0.0793,0.0572,0.0485,0.0479,0.0455,0.045,0.039,0.0354,0.0326,0.0533,0.0534,0.0536,0.0537,0,0.0551,0.0572,0.0642,0.075,0.0837,0.0938,0.1057,0.1141,0.1236,0.1331,0.1436,0.1452,0.1293,0.1145,0.0858,0.0693,0.0507,0.0495,0.0484,0.0548,0.0519,0.0467,0.0517,0.0547,0.0546,0.0546,0.0545,0.0545,0.063,0.0695,0.0772,0.0877,0.097,0.1084,0.1159,0.1295,0.1429,0.1564,0.157,0.1593,0.1449,0.1096,0.0889,0.0644,0.0568,0.0567,0.052,0.0481,0.0473,0.0537,0.0543,0.0542,0.0541,0.054,0.0539,0,0.0724,0.0788,0.0899,0.1007,0.1104,0.1135,0.1282,0.1349,0.1493,0.1629,0.1694,0.1657,0.1484,0.1235,0.0944,0.0742,0.0629,0.0624,0.0622,0.0584,0.066,0.0696,0.0746,0.0746,0.0746,0.0746,0.0746,0.0746,0.0779,0.0886,0.0935,0.1095,0.1167,0.1258,0.1323,0.143,0.1524,0.1651,0.1685,0.1696,0.1642,0.123,0.0952,0.0831,0.0686,0.0636,0.052,0.0625,0.0618,0.0611,0.0641,0.0678,0.0678,0.0506,0.0504,0.0503]}],[{"header":{"parameterUnit":"m.s-1","parameterCategory":2,"la1":30.2991,"la2":30.254,"lo1":-89.0895,"lo2":-89.0444,"dy":0.0017,"dx":0.0017,"nx":28,"ny":28,"refTime":"2024-04-26T03:00:00:Z","depth":"2","parameterNumber":2,"parameterNumberName":"U-component_of_CURRENTS"},"data":[0,0,0,0,0,0,0,0,0,0,0,0,0,0,0,0,0,0,0,0,0,0,0,0,0,0,0,0,0,0,0,0,0,0,0,0,0,0,0,0,0,0,0,0,0,0,0,0,0,0,0,0,0,0,0,0,0,0,0.2163,0.2163,0,0.2163,0.2163,0.2163,0.215,0.215,0.2149,0.2149,0.2143,0.2144,0.2144,0,0,0,0,0,0,0,0,0,0,0,0,0,0.2184,0.2184,0.2163,0.2163,0.2163,0.2163,0.2163,0.2163,0.215,0.215,0.2149,0.2149,0.2143,0.2144,0.2144,0,0,0,0,0,0,0,0,0,0,0,0,0,0.2178,0.2184,0.2163,0.2157,0.2157,0.2163,0.2163,0.2163,0.215,0.215,0.2149,0.2149,0.2143,0.2144,0.2144,0.2153,0,0,0.2144,0.2144,0,0,0,0,0,0,0,0,0.2178,0.2177,0.2158,0.2158,0.2157,0.2156,0.2168,0.2159,0.215,0.2152,0.2149,0.2149,0.2148,0.2148,0.2148,0.2153,0.2153,0.2144,0.2144,0.2144,0.2144,0,0,0,0,0,0,0,0.2179,0.2177,0.2163,0.2158,0.2158,0.2165,0.2164,0.2166,0.2152,0.2152,0.2151,0.2152,0.2147,0.2148,0.2148,0.2153,0.2144,0.2144,0.2144,0.2145,0.2238,0.2241,0,0,0,0,0,0,0.2178,0.2178,0.2163,0.2163,0.2167,0.2165,0.2163,0.2157,0.2152,0.2151,0.2152,0.2151,0.2148,0.2148,0.2148,0.2217,0.2144,0.2145,0.2145,0.2236,0.2239,0.2241,0,0,0,0,0,0,0.2179,0.2177,0.2163,0.2171,0.217,0.2165,0.2158,0.2157,0.2159,0.2152,0.2151,0.2156,0.2147,0.2147,0.216,0.2214,0.2145,0.2145,0.2233,0.2237,0.224,0.2319,0,0,0,0,0,0,0.2179,0.2177,0.2176,0.2171,0.2169,0.2169,0.2158,0.2157,0.216,0.2159,0.2155,0.2154,0.2147,0.216,0.2161,0.2213,0.2145,0.223,0.2235,0.2239,0.2313,0.2325,0.2335,0,0,0,0,0,0.218,0.2182,0.2176,0.2174,0.2166,0.2169,0.2169,0.2164,0.2161,0.2165,0.2168,0.2154,0.219,0.2161,0.2161,0.2216,0.2228,0.2233,0.2239,0.2309,0.2323,0.2334,0,0,0,0,0,0,0.2191,0.218,0.2174,0.2172,0.2171,0.2167,0.2171,0.2169,0.2174,0.2175,0.2167,0.2167,0.2209,0.2197,0.2166,0.2259,0.2214,0.222,0.2268,0.2281,0.2291,0.2295,0.2145,0,0,0,0,0,0.2193,0.2189,0.2183,0.2181,0.2181,0.2177,0.2179,0.2178,0.218,0.2181,0.2183,0.2198,0.2232,0.224,0.2258,0.2291,0.2277,0.2333,0.2344,0.2353,0.2359,0.2399,0.2413,0.2259,0.2259,0.2259,0,0,0.2195,0.219,0.2187,0.2183,0.2181,0.2194,0.2177,0.2183,0.2212,0.2181,0.2219,0.223,0.225,0.23,0.2319,0.2294,0.2385,0.2359,0.2367,0.2368,0.2406,0.2421,0.2434,0.2263,0.2262,0.2261,0,0,0.2199,0.2195,0.2192,0.2198,0.22,0.2207,0.2211,0.2214,0.2234,0.2266,0.2272,0.2315,0.2337,0.2379,0.2401,0.2481,0.2443,0.2486,0.2539,0.2579,0.2592,0.2603,0.258,0.2588,0.2489,0.2489,0.2489,0,0.2204,0.2202,0.2194,0.2201,0.221,0.2216,0.2227,0.226,0.2273,0.2296,0.2288,0.2369,0.239,0.2474,0.2511,0.2509,0.249,0.2486,0.2592,0.2603,0.2612,0.2587,0.2595,0.2494,0.2493,0.2493,0.2492,0,0.2204,0.2213,0.2217,0.223,0.2238,0.2254,0.2287,0.2315,0.2341,0.237,0.2447,0.2484,0.2534,0.2561,0.2562,0.2655,0.2603,0.2601,0.2555,0.2633,0.26,0.2608,0.25,0.2499,0.2497,0.2496,0,0,0.2192,0.2213,0.2216,0.2237,0.2257,0.2271,0.2324,0.2374,0.2434,0.247,0.2547,0.2628,0.2646,0.2674,0.2695,0.2732,0.2794,0.2695,0.2695,0.2663,0.2826,0.2756,0.2755,0.2798,0.2801,0.2803,0.2765,0,0.2199,0.2216,0.2227,0.2271,0.2284,0.2316,0.2372,0.2422,0.2481,0.2565,0.2628,0.2712,0.2695,0.2738,0.2778,0.2793,0.2819,0.28,0.2763,0.2762,0.2684,0.2766,0.2507,0.245,0.2772,0.2773,0.2774,0,0.2195,0.2208,0.2236,0.2299,0.231,0.2354,0.2439,0.2492,0.2602,0.2647,0.2724,0.2776,0.286,0.2847,0.2888,0.2866,0.286,0.2856,0.2854,0.2768,0.2707,0.2431,0.245,0.2785,0.2784,0.2783,0.2782,0,0.2182,0.2227,0.2254,0.2272,0.2337,0.2379,0.2426,0.2515,0.2568,0.2711,0.2759,0.2855,0.291,0.2928,0.2927,0.2911,0.2948,0.2928,0.285,0.2841,0.2605,0.2573,0.2973,0.2973,0.2974,0.2974,0.2974,0,0.2195,0.2226,0.2264,0.2289,0.235,0.2389,0.2477,0.2544,0.2638,0.2706,0.2809,0.287,0.2935,0.2965,0.2951,0.291,0.2966,0.287,0.2848,0.2623,0.2595,0.2877,0.2866,0.2972,0.2972,0.2973,0.2973,0,0.2197,0.2219,0.2267,0.2332,0.2349,0.2403,0.2478,0.2546,0.2628,0.2721,0.2765,0.2877,0.2911,0.2942,0.2972,0.2926,0.2912,0.2886,0.2591,0.2537,0.276,0.2754,0.2787,0.2785,0.2783,0.2781,0.278,0,0.2202,0.2223,0.2278,0.2312,0.2357,0.2418,0.2456,0.2534,0.2589,0.2705,0.2748,0.2831,0.286,0.2861,0.2809,0.276,0.2861,0.2511,0.2469,0.2777,0.2752,0.2749,0.2746,0.2161,0.2154,0.2149,0.2145,0,0.2238,0.2262,0.2306,0.2336,0.2394,0.2414,0.2473,0.2492,0.258,0.2619,0.2662,0.2692,0.2708,0.2551,0.2525,0.247,0.25,0.2405,0.2814,0.227,0.219,0.2165,0.2181,0.2099,0.2104,0.2107,0.2109,0.2111,0.2281,0.2304,0.2351,0.2367,0.2418,0.24,0.237,0.243,0.2439,0.2426,0.2501,0.2422,0.2404,0.2226,0.2129,0.2056,0.2245,0.2126,0.214,0.216,0.2117,0.2041,0.1909,0.1912,0.1915,0.1917,0.192,0,0.2327,0.233,0.2362,0.2369,0.2357,0.2388,0.2363,0.2283,0.2238,0.2242,0.2198,0.1928,0.1801,0.1801,0.1603,0.1587,0.1554,0.1527,0.1456,0.1503,0.1544,0.1469,0.1089,0.1086,0.1084,0.1082,0,0,0.2366,0.2373,0.2331,0.2277,0.2274,0.22,0.2143,0.2047,0.1994,0.1826,0.1718,0.1741,0.1764,0.1422,0.135,0.1194,0.1352,0.1139,0.1803,0.1769,0.1809,0.1882,0.1817,0,0,0,0,0]},{"header":{"parameterUnit":"m.s-1","parameterCategory":2,"la1":30.2991,"la2":30.254,"lo1":-89.0895,"lo2":-89.0444,"dy":0.0017,"dx":0.0017,"nx":28,"ny":28,"refTime":"2024-04-26T03:00:00:Z","depth":"2","parameterNumber":3,"parameterNumberName":"V-component_of_CURRENTS"},"data":[0,0,0,0,0,0,0,0,0,0,0,0,0,0,0,0,0,0,0,0,0,0,0,0,0,0,0,0,0,0,0,0,0,0,0,0,0,0,0,0,0,0,0,0,0,0,0,0,0,0,0,0,0,0,0,0,0,0,0.0177,0.0177,0,0.0161,0.016,0.016,0.0146,0.0146,0.0146,0.0146,0.0117,0.0116,0.0115,0,0,0,0,0,0,0,0,0,0,0,0,0,0.0176,0.0176,0.0177,0.0177,0.0176,0.0161,0.016,0.016,0.0146,0.0146,0.0146,0.0146,0.0117,0.0116,0.0115,0,0,0,0,0,0,0,0,0,0,0,0,0,0.017,0.0176,0.0177,0.0168,0.0167,0.0161,0.016,0.016,0.0146,0.0146,0.0146,0.0145,0.0117,0.0116,0.0115,0.0114,0,0,0.0112,0.0112,0,0,0,0,0,0,0,0,0.017,0.017,0.0169,0.0168,0.0167,0.0155,0.0149,0.0144,0.0146,0.0154,0.0146,0.0145,0.0129,0.0127,0.0124,0.0112,0.0111,0.0112,0.0112,0.0111,0.0111,0,0,0,0,0,0,0,0.0171,0.017,0.017,0.0169,0.0168,0.0158,0.0157,0.0148,0.0142,0.0153,0.0152,0.0151,0.0128,0.0125,0.0123,0.011,0.0112,0.0111,0.0111,0.011,0.0108,0.0108,0,0,0,0,0,0,0.0174,0.0171,0.0171,0.017,0.0168,0.0158,0.0157,0.0159,0.0142,0.014,0.0151,0.015,0.0127,0.0124,0.0122,0.0137,0.0111,0.011,0.011,0.0107,0.0108,0.0109,0,0,0,0,0,0,0.0174,0.0175,0.0171,0.017,0.0169,0.0158,0.0161,0.0159,0.0159,0.0141,0.0138,0.0154,0.0126,0.0123,0.0122,0.0135,0.011,0.0109,0.0107,0.0108,0.0108,0.0155,0,0,0,0,0,0,0.0175,0.0175,0.0177,0.017,0.0169,0.0172,0.0161,0.0159,0.0159,0.0158,0.0142,0.0139,0.0126,0.0124,0.0121,0.0133,0.0108,0.0106,0.0107,0.0108,0.0153,0.0157,0.0161,0,0,0,0,0,0.0175,0.0181,0.0177,0.0177,0.0172,0.0173,0.0171,0.0163,0.0159,0.0162,0.0154,0.014,0.0128,0.0124,0.012,0.0132,0.0106,0.0107,0.0108,0.0151,0.0156,0.0161,0,0,0,0,0,0,0.018,0.0179,0.0176,0.018,0.0178,0.017,0.0172,0.0167,0.0163,0.0162,0.0147,0.0143,0.0148,0.0133,0.0128,0.0134,0.0115,0.0115,0.0148,0.0153,0.0157,0.017,0.0107,0,0,0,0,0,0.0183,0.0188,0.0184,0.0188,0.0189,0.0182,0.018,0.0175,0.0171,0.0169,0.0162,0.0153,0.015,0.0146,0.0139,0.0141,0.0129,0.0146,0.0151,0.0154,0.0162,0.0168,0.0173,0.0112,0.0112,0.0112,0,0,0.0185,0.0186,0.0188,0.019,0.0187,0.0198,0.0181,0.0182,0.0195,0.0166,0.0183,0.0169,0.0154,0.0159,0.0159,0.0148,0.0161,0.0156,0.0159,0.0165,0.0169,0.0175,0.0181,0.0113,0.0113,0.0113,0,0,0.0197,0.0195,0.0205,0.0209,0.0209,0.0209,0.0212,0.021,0.0212,0.0222,0.0207,0.0201,0.0198,0.0189,0.0184,0.0206,0.0184,0.0203,0.0232,0.0238,0.0243,0.0247,0.0222,0.0224,0.0203,0.0203,0.0203,0,0.0199,0.0216,0.0207,0.0221,0.023,0.0218,0.0236,0.0239,0.0238,0.0248,0.0234,0.0238,0.0214,0.0228,0.0228,0.0216,0.0208,0.0215,0.0244,0.0248,0.0252,0.0225,0.0226,0.0205,0.0205,0.0205,0.0205,0,0.022,0.0237,0.0245,0.0263,0.0268,0.0282,0.0285,0.0294,0.0297,0.0303,0.0318,0.0292,0.03,0.0282,0.0258,0.0275,0.0255,0.0251,0.0234,0.0261,0.023,0.0231,0.0209,0.0208,0.0207,0.0207,0,0,0.0225,0.0255,0.026,0.0287,0.0294,0.031,0.0327,0.035,0.0386,0.0373,0.0421,0.0384,0.0379,0.0372,0.0344,0.0328,0.0326,0.03,0.0299,0.0278,0.0321,0.0319,0.0319,0.0334,0.0335,0.0336,0.0282,0,0.025,0.0288,0.0296,0.0347,0.0368,0.0372,0.0405,0.0421,0.0433,0.0479,0.0452,0.0487,0.0414,0.043,0.0403,0.0358,0.0334,0.034,0.0295,0.0293,0.0291,0.0322,0.0316,0.027,0.0282,0.0283,0.0283,0,0.0274,0.0298,0.0346,0.0407,0.0421,0.046,0.0516,0.0541,0.058,0.0595,0.0606,0.0602,0.0583,0.0532,0.0454,0.0465,0.0398,0.0345,0.0342,0.0329,0.0294,0.0248,0.0271,0.0284,0.0284,0.0283,0.0283,0,0.0291,0.0343,0.039,0.0407,0.0465,0.0508,0.0545,0.0582,0.0631,0.0684,0.073,0.0705,0.0723,0.0635,0.0514,0.0496,0.0428,0.0396,0.0323,0.032,0.0301,0.0296,0.035,0.035,0.035,0.0351,0.0351,0,0.0325,0.0366,0.0416,0.045,0.0534,0.0555,0.0656,0.0683,0.0755,0.084,0.0807,0.0864,0.0754,0.0702,0.0567,0.045,0.0471,0.0337,0.0319,0.0314,0.0311,0.0315,0.0311,0.0349,0.0349,0.0349,0.035,0,0.0345,0.0376,0.0447,0.0522,0.0552,0.062,0.0736,0.0811,0.0856,0.0968,0.0998,0.0999,0.0937,0.0795,0.0664,0.0538,0.0413,0.0364,0.0349,0.0332,0.028,0.0279,0.0282,0.0281,0.0281,0.0281,0.0281,0,0.0355,0.039,0.0492,0.0553,0.0604,0.0702,0.078,0.086,0.0935,0.1051,0.111,0.1106,0.1101,0.0891,0.069,0.0476,0.0435,0.0324,0.0292,0.0296,0.0279,0.0279,0.0278,0.0264,0.0264,0.0264,0.0263,0,0.0389,0.0437,0.0501,0.0598,0.0708,0.0802,0.0912,0.0985,0.1093,0.1183,0.1275,0.1288,0.1143,0.0938,0.0668,0.052,0.0358,0.0315,0.0345,0.0293,0.0279,0.0262,0.0263,0.0262,0.0262,0.0262,0.0262,0.0262,0.0427,0.0469,0.0558,0.0633,0.0756,0.0855,0.0934,0.1073,0.1195,0.1295,0.1333,0.1327,0.1167,0.08,0.058,0.0352,0.0381,0.0255,0.0256,0.0257,0.0276,0.0264,0.0244,0.0244,0.0244,0.0244,0.0244,0,0.047,0.0494,0.057,0.0674,0.077,0.0848,0.0981,0.1051,0.1196,0.1306,0.1363,0.1148,0.0964,0.0762,0.0433,0.0249,0.0223,0.0167,0.0164,0.0169,0.0172,0.0186,0.013,0.0129,0.0128,0.0127,0,0,0.0499,0.0546,0.053,0.0628,0.0716,0.0852,0.0921,0.1059,0.1147,0.1194,0.12,0.1199,0.101,0.0728,0.0496,0.0305,0.0269,0.0261,0.0376,0.0406,0.0411,0.0252,0.0283,0,0,0,0,0]}],[{"header":{"parameterUnit":"m.s-1","parameterCategory":2,"la1":30.2991,"la2":30.254,"lo1":-89.0895,"lo2":-89.0444,"dy":0.0017,"dx":0.0017,"nx":28,"ny":28,"refTime":"2024-04-26T03:00:00:Z","depth":"4","parameterNumber":2,"parameterNumberName":"U-component_of_CURRENTS"},"data":[0,0,0,0,0,0,0,0,0,0,0,0,0,0,0,0,0,0,0,0,0,0,0,0,0,0,0,0,0,0,0,0,0,0,0,0,0,0,0,0,0,0,0,0,0,0,0,0,0,0,0,0,0,0,0,0,0,0,0.1324,0.1324,0,0.1356,0.1356,0.1356,0.1398,0.1399,0.14,0.1401,0.1458,0.1459,0.146,0,0,0,0,0,0,0,0,0,0,0,0,0,0.1304,0.1304,0.1324,0.1324,0.1325,0.1356,0.1356,0.1356,0.1398,0.1399,0.14,0.1401,0.1458,0.1459,0.146,0,0,0,0,0,0,0,0,0,0,0,0,0,0.1321,0.1304,0.1324,0.135,0.1353,0.1356,0.1356,0.1356,0.1398,0.1399,0.14,0.1401,0.1457,0.1459,0.146,0.1445,0,0,0.1464,0.1464,0,0,0,0,0,0,0,0,0.132,0.1322,0.1346,0.1348,0.1351,0.1375,0.137,0.1388,0.1398,0.138,0.1401,0.1402,0.1432,0.1435,0.1438,0.1448,0.145,0.1464,0.1464,0.1465,0.1465,0,0,0,0,0,0,0,0.1319,0.132,0.1336,0.1346,0.1349,0.1361,0.1365,0.1373,0.1399,0.1382,0.1385,0.1389,0.1434,0.1436,0.1439,0.1451,0.1464,0.1465,0.1466,0.1466,0.1552,0.1553,0,0,0,0,0,0,0.1314,0.1319,0.1335,0.1337,0.1339,0.1361,0.1365,0.1366,0.1399,0.1405,0.1388,0.1391,0.1434,0.1438,0.1442,0.1501,0.1465,0.1466,0.1467,0.155,0.1552,0.1554,0,0,0,0,0,0,0.1314,0.1315,0.1334,0.133,0.1333,0.136,0.136,0.1366,0.1399,0.1404,0.141,0.142,0.1435,0.144,0.148,0.1501,0.1467,0.1468,0.1549,0.1551,0.1553,0.1572,0,0,0,0,0,0,0.1313,0.1315,0.1329,0.1329,0.1333,0.1357,0.136,0.1365,0.1398,0.1403,0.1432,0.1437,0.1436,0.1478,0.1481,0.1502,0.1469,0.1547,0.155,0.1552,0.157,0.1575,0.1579,0,0,0,0,0,0.1312,0.1321,0.133,0.1333,0.1347,0.1358,0.1362,0.1384,0.1399,0.1418,0.1442,0.1437,0.1499,0.148,0.1484,0.1505,0.1545,0.1549,0.1552,0.1568,0.1574,0.1579,0,0,0,0,0,0,0.1322,0.1326,0.1336,0.1347,0.1363,0.1366,0.1388,0.14,0.1432,0.1448,0.1452,0.1459,0.1503,0.1505,0.1485,0.1542,0.1523,0.1528,0.1534,0.154,0.1545,0.154,0.147,0,0,0,0,0,0.1329,0.1339,0.1345,0.136,0.137,0.1385,0.1398,0.1414,0.1433,0.145,0.1469,0.1494,0.1513,0.1529,0.1547,0.1574,0.1593,0.1594,0.1599,0.1603,0.1604,0.1664,0.1674,0.1565,0.1565,0.1565,0,0,0.1337,0.1342,0.1349,0.1364,0.1379,0.1389,0.1397,0.1427,0.144,0.145,0.149,0.1514,0.1526,0.1559,0.1579,0.1567,0.1644,0.1607,0.161,0.1609,0.1669,0.1679,0.1689,0.1568,0.1567,0.1567,0,0,0.1347,0.1364,0.1374,0.1386,0.1413,0.1418,0.1433,0.1455,0.1476,0.1506,0.1523,0.1563,0.1587,0.1604,0.1611,0.1656,0.1669,0.167,0.1687,0.1746,0.1755,0.1763,0.1796,0.1808,0.167,0.167,0.167,0,0.1362,0.1365,0.1382,0.1392,0.1402,0.1432,0.1442,0.1461,0.1497,0.1517,0.1526,0.1588,0.1603,0.1639,0.1658,0.1665,0.1698,0.1658,0.1751,0.176,0.1768,0.18,0.1812,0.1671,0.1671,0.1671,0.1671,0,0.1365,0.1379,0.1389,0.1405,0.1422,0.144,0.146,0.1495,0.1522,0.1537,0.1595,0.1623,0.1661,0.1675,0.1676,0.1743,0.1748,0.1751,0.1732,0.178,0.1811,0.1823,0.1673,0.1673,0.1672,0.1672,0,0,0.1361,0.1385,0.1391,0.1397,0.143,0.1437,0.1474,0.1503,0.1536,0.1577,0.1619,0.1657,0.1692,0.1704,0.1728,0.1775,0.1858,0.1792,0.1795,0.1816,0.1985,0.1813,0.1809,0.1888,0.189,0.1892,0.1982,0,0.136,0.1368,0.1387,0.1402,0.1404,0.1445,0.1472,0.151,0.1552,0.1604,0.1645,0.17,0.1696,0.1739,0.1782,0.1852,0.1893,0.1833,0.1943,0.1945,0.1779,0.1818,0.19,0.1991,0.1994,0.1996,0.1997,0,0.1347,0.1352,0.1365,0.1391,0.1401,0.1425,0.1481,0.1513,0.159,0.1632,0.1693,0.1734,0.1814,0.1809,0.1928,0.1898,0.1941,0.1981,0.1986,0.1823,0.1794,0.1936,0.2019,0.2017,0.2016,0.2014,0.2013,0,0.1308,0.1334,0.1343,0.135,0.139,0.1421,0.1457,0.1528,0.1571,0.1673,0.1726,0.1805,0.1873,0.1943,0.2007,0.1995,0.2131,0.2121,0.1997,0.1986,0.2107,0.2097,0.2199,0.2199,0.2199,0.2199,0.2199,0,0.1275,0.1282,0.1332,0.1332,0.1363,0.1405,0.1461,0.1518,0.1611,0.1661,0.175,0.1801,0.1919,0.1994,0.2039,0.2043,0.2157,0.2,0.1998,0.2112,0.2102,0.2115,0.2104,0.2202,0.2202,0.2201,0.22,0,0.1221,0.1254,0.1268,0.1321,0.1346,0.1373,0.1465,0.15,0.1608,0.1686,0.1729,0.184,0.1925,0.2006,0.2126,0.2067,0.2105,0.2077,0.2188,0.2192,0.1914,0.1904,0.1946,0.1941,0.1936,0.1933,0.1929,0,0.1184,0.1189,0.1259,0.128,0.1311,0.1363,0.1399,0.1497,0.1531,0.1682,0.1702,0.1825,0.1881,0.1907,0.1999,0.2051,0.2028,0.2026,0.1959,0.1894,0.189,0.1886,0.1882,0.1922,0.1921,0.192,0.1919,0,0.1119,0.1168,0.1187,0.1231,0.1272,0.1299,0.1355,0.1372,0.1478,0.1599,0.1638,0.1678,0.1752,0.1808,0.1854,0.189,0.2015,0.1978,0.1987,0.1924,0.1866,0.1865,0.1866,0.1903,0.1905,0.1907,0.1907,0,0.109,0.1091,0.1136,0.1162,0.1211,0.1206,0.1246,0.1272,0.132,0.1476,0.1485,0.1614,0.1728,0.1724,0.1774,0.1782,0.1753,0.1694,0.1718,0.1736,0.1621,0.1512,0.1439,0,0,0,0,0,0.1048,0.1036,0.1057,0.1068,0.1111,0.1132,0.1197,0.1237,0.1341,0.1328,0.14,0.1458,0.1508,0.1571,0.1539,0.1676,0.176,0.1628,0.1704,0.1816,0.1834,0.1714,0,0,0,0,0,0,0.102,0.1036,0.1024,0.0982,0.0974,0.0993,0.1028,0.1099,0.1087,0.1217,0.1254,0.1358,0.1434,0.152,0.1511,0.153,0.1542,0.171,0.1705,0.1805,0.1822,0.1836,0.172,0,0,0,0,0]},{"header":{"parameterUnit":"m.s-1","parameterCategory":2,"la1":30.2991,"la2":30.254,"lo1":-89.0895,"lo2":-89.0444,"dy":0.0017,"dx":0.0017,"nx":28,"ny":28,"refTime":"2024-04-26T03:00:00:Z","depth":"4","parameterNumber":3,"parameterNumberName":"V-component_of_CURRENTS"},"data":[0,0,0,0,0,0,0,0,0,0,0,0,0,0,0,0,0,0,0,0,0,0,0,0,0,0,0,0,0,0,0,0,0,0,0,0,0,0,0,0,0,0,0,0,0,0,0,0,0,0,0,0,0,0,0,0,0,0,0.0059,0.0059,0,0.0055,0.0055,0.0055,0.0046,0.0046,0.0045,0.0045,0.0035,0.0035,0.0035,0,0,0,0,0,0,0,0,0,0,0,0,0,0.0051,0.0051,0.0059,0.0059,0.0059,0.0055,0.0055,0.0055,0.0046,0.0046,0.0045,0.0045,0.0035,0.0035,0.0035,0,0,0,0,0,0,0,0,0,0,0,0,0,0.0052,0.0051,0.0059,0.0054,0.0053,0.0055,0.0055,0.0055,0.0046,0.0046,0.0045,0.0045,0.0035,0.0035,0.0035,0.0041,0,0,0.0035,0.0035,0,0,0,0,0,0,0,0,0.0052,0.0052,0.0054,0.0054,0.0053,0.005,0.0049,0.005,0.0046,0.0049,0.0045,0.0045,0.004,0.0039,0.004,0.0041,0.004,0.0035,0.0035,0.0035,0.0035,0,0,0,0,0,0,0,0.0052,0.0052,0.0058,0.0054,0.0054,0.0049,0.0049,0.0049,0.0046,0.0049,0.0048,0.0047,0.004,0.004,0.0039,0.004,0.0035,0.0035,0.0035,0.0035,0.0059,0.006,0,0,0,0,0,0,0.0052,0.0052,0.0058,0.0057,0.0051,0.0049,0.0049,0.0052,0.0046,0.0045,0.0047,0.0047,0.004,0.004,0.0039,0.0069,0.0035,0.0035,0.0035,0.0058,0.0059,0.006,0,0,0,0,0,0,0.0052,0.0053,0.0058,0.0054,0.0054,0.005,0.0053,0.0052,0.0055,0.0046,0.0044,0.0051,0.004,0.0039,0.0047,0.0068,0.0035,0.0035,0.0058,0.0059,0.006,0.0114,0,0,0,0,0,0,0.0052,0.0053,0.0056,0.0054,0.0055,0.0066,0.0053,0.0052,0.0055,0.0054,0.0049,0.0047,0.004,0.0047,0.0047,0.0067,0.0035,0.0057,0.0058,0.0059,0.0112,0.0117,0.0122,0,0,0,0,0,0.0052,0.0059,0.0056,0.0057,0.0059,0.0067,0.0067,0.0062,0.0055,0.0062,0.0059,0.0047,0.0055,0.0048,0.0047,0.0068,0.0056,0.0058,0.0059,0.0109,0.0116,0.0122,0,0,0,0,0,0,0.0056,0.0059,0.0056,0.0063,0.0067,0.0065,0.007,0.0066,0.0069,0.0066,0.0057,0.0056,0.007,0.006,0.0052,0.0078,0.0054,0.0055,0.0092,0.0098,0.0103,0.0113,0.0034,0,0,0,0,0,0.0059,0.0066,0.0067,0.0073,0.0076,0.0074,0.0076,0.0073,0.0074,0.0074,0.0073,0.0071,0.0076,0.008,0.0079,0.0094,0.0075,0.0106,0.0111,0.0116,0.0123,0.0111,0.0116,0.0065,0.0065,0.0065,0,0,0.0062,0.0064,0.0067,0.0075,0.0077,0.0092,0.0075,0.0081,0.0097,0.0073,0.0095,0.0088,0.0083,0.0101,0.0107,0.0096,0.0119,0.0118,0.0122,0.0127,0.0113,0.0118,0.0122,0.0066,0.0066,0.0066,0,0,0.0076,0.0075,0.0087,0.0095,0.0101,0.0104,0.0108,0.0112,0.0116,0.013,0.0121,0.013,0.0132,0.0141,0.0143,0.0176,0.0144,0.0172,0.021,0.0198,0.0203,0.0206,0.0182,0.0183,0.0177,0.0177,0.0177,0,0.0079,0.0097,0.0092,0.011,0.0123,0.0114,0.0136,0.0142,0.0148,0.0162,0.0142,0.016,0.0154,0.0186,0.0198,0.0189,0.0168,0.0188,0.0205,0.0208,0.0211,0.0185,0.0186,0.018,0.018,0.0179,0.0179,0,0.0106,0.0121,0.0131,0.0154,0.0167,0.0184,0.0193,0.0209,0.0208,0.0213,0.0236,0.0225,0.0237,0.0237,0.0227,0.0252,0.0225,0.0211,0.0191,0.0219,0.019,0.019,0.0184,0.0183,0.0182,0.0181,0,0,0.0112,0.0144,0.0149,0.0169,0.0193,0.0208,0.0242,0.0273,0.0297,0.0295,0.0322,0.0332,0.0319,0.032,0.0308,0.0301,0.0299,0.0266,0.0264,0.0244,0.026,0.0231,0.0227,0.0282,0.0283,0.0283,0.0231,0,0.0137,0.0178,0.0191,0.0237,0.0261,0.0275,0.0312,0.0337,0.0346,0.0368,0.0361,0.0376,0.0352,0.0354,0.0347,0.0312,0.03,0.0314,0.0234,0.0232,0.0204,0.0227,0.0284,0.023,0.023,0.0229,0.0229,0,0.0162,0.0188,0.0235,0.0286,0.0299,0.0328,0.0383,0.0411,0.0441,0.0447,0.0458,0.0441,0.0447,0.0407,0.0368,0.0375,0.0325,0.0289,0.0286,0.0241,0.0202,0.0196,0.0227,0.0227,0.0228,0.0228,0.0228,0,0.017,0.0221,0.0261,0.0277,0.0331,0.0363,0.0396,0.0438,0.0469,0.0493,0.0505,0.0501,0.0491,0.0443,0.0376,0.0368,0.0312,0.029,0.0217,0.0213,0.023,0.0227,0.0255,0.0255,0.0255,0.0255,0.0256,0,0.0193,0.0224,0.0268,0.0291,0.0345,0.0379,0.0439,0.0468,0.0512,0.0551,0.0541,0.0553,0.0496,0.0457,0.0391,0.0305,0.0324,0.0228,0.0204,0.0252,0.0253,0.0228,0.0226,0.0253,0.0254,0.0254,0.0255,0,0.0188,0.0221,0.0265,0.0326,0.0348,0.0384,0.0461,0.0501,0.0541,0.0586,0.0594,0.0588,0.0544,0.0479,0.0394,0.0322,0.0246,0.0207,0.0264,0.0242,0.0146,0.0147,0.0119,0.0118,0.0117,0.0116,0.0115,0,0.0186,0.0209,0.0274,0.0305,0.0333,0.0395,0.0441,0.0505,0.0545,0.0606,0.0619,0.0601,0.0584,0.0453,0.0375,0.0251,0.0224,0.0167,0.016,0.0156,0.0135,0.0138,0.014,0.0113,0.0113,0.0112,0.0112,0,0.0175,0.0198,0.0232,0.0294,0.0345,0.0409,0.0476,0.0509,0.0585,0.0619,0.0644,0.0597,0.0541,0.0448,0.0352,0.0261,0.0198,0.0155,0.0156,0.0149,0.0149,0.0129,0.0133,0.0108,0.0109,0.0109,0.0109,0,0.016,0.0174,0.0222,0.0279,0.0339,0.0405,0.0452,0.0512,0.0562,0.0633,0.0636,0.0604,0.059,0.0451,0.0367,0.0277,0.024,0.0182,0.0181,0.0185,0.0217,0.0227,0.0196,0,0,0,0,0,0.0149,0.0169,0.0208,0.0278,0.0337,0.0383,0.0465,0.0513,0.0584,0.0602,0.0628,0.0588,0.048,0.0437,0.0341,0.0319,0.0205,0.0197,0.0134,0.0087,0.0091,0.0115,0,0,0,0,0,0,0.0145,0.0175,0.0195,0.0261,0.0311,0.0386,0.0443,0.0499,0.0516,0.0574,0.0525,0.053,0.0429,0.054,0.0331,0.0305,0.0241,0.0161,0.0158,0.0084,0.0088,0.0092,0.0118,0,0,0,0,0]}]]